Location: Chattahoochee River National Recreation Area
(34.0022°N, 84.2416°W)
Time: 12:33:16
(UTC-04:00)

Daily predictions for brighter satellites

Satellite Brightness Start Highest point End
(mag) Time Altitude Azimuth Time Altitude Azimuth Time Altitude Azimuth
YAOGAN 6 3.3 20:56:35 10° SE 21:00:02 37° ENE 21:03:28 10° N
Cosmos 1802 Rocket 4.2 20:55:33 10° SSE 21:01:36 53° E 21:07:46 10° NNE
Cosmos 1833 Rocket 2.9 20:56:18 10° SSW 21:01:56 83° WNW 21:07:36 10° NNE
Okean 1-7 4.4 20:57:56 10° SSW 21:01:58 43° W 21:06:02 10° N
DNEPR-1 R/B 4.4 21:03:58 10° S 21:07:29 27° ESE 21:11:12 10° NE
Cosmos 2369 3.8 21:03:58 10° NNW 21:09:37 71° ENE 21:15:16 10° SSE
Abrixas rocket 3.8 21:09:54 10° S 21:12:00 16° SE 21:14:06 10° E
ERS-2 2.5 21:14:03 10° SSE 21:17:36 48° ENE 21:21:10 10° N
NOSS 3-2 (A) 3.8 21:12:31 10° S 21:17:46 38° ESE 21:23:24 10° NE
Gblst 52 Del rocket 4.4 21:12:22 10° NW 21:17:52 60° NE 21:22:59 12° ESE
Cosmos 44 3.6 21:13:08 10° NNW 21:18:30 68° ENE 21:23:52 10° SE
ATLAS CENTAUR R/B 3.2 21:16:03 10° N 21:19:36 22° NE 21:23:09 10° ESE
NOSS 3-2 (C) 4.2 21:16:29 10° SSE 21:21:14 27° ESE 21:26:17 10° NE
Okean 2 Rocket 3.5 21:18:38 10° NNW 21:23:01 67° W 21:27:24 10° S
CZ-2D R/B 4.2 21:19:48 10° S 21:23:31 48° W 21:27:17 10° NNW
USA 234 3.6 21:17:43 10° NE 21:24:16 75° NW 21:30:48 10° SW
Cosmos 1674 Rocket 3.7 21:20:34 10° S 21:24:54 56° E 21:29:17 10° NNE
Meteor 1-5 Rocket 4.4 21:19:28 10° N 21:25:20 84° W 21:31:17 10° S
Cosmos 1378 Rocket 4.3 21:21:34 10° SSE 21:25:22 31° E 21:29:12 10° NNE
Cosmos 1536 2.9 21:21:59 10° N 21:26:04 84° W 21:30:08 10° S
Okean 1 Rocket 4.3 21:23:22 10° NNE 21:26:53 24° ENE 21:29:27 14° ESE
Atlas Centaur 2 1.4 21:26:01 10° WSW 21:29:36 43° S 21:32:12 16° ESE
Resurs 01 Rocket 1.7 21:25:16 10° SSE 21:29:37 62° ENE 21:33:57 10° N
Delta 168 4.0 21:28:03 10° SW 21:30:19 18° S 21:31:31 15° SSE
Tiangong 2 1.3 21:27:40 10° SW 21:30:42 48° SSE 21:33:44 10° ENE
Cosmos 2082 Rocket 3.2 21:26:34 10° SW 21:32:02 50° WNW 21:37:33 10° N
Cosmos 1777 Rocket 4.0 21:28:47 10° NNW 21:34:00 77° ENE 21:39:01 11° SSE
COSMOS 2487 2.3 21:31:30 10° S 21:34:57 66° ESE 21:38:26 10° NNE
NOAA 11 4.4 21:30:17 10° SSE 21:35:33 55° ENE 21:40:52 10° N
Envisat 4.2 21:31:36 10° S 21:36:24 43° W 21:41:13 10° NNW
Cosmos 1975 4.4 21:33:50 10° NNE 21:36:48 19° ENE 21:38:14 16° ESE
Thor Agena Rocket 4.1 21:33:36 10° N 21:38:48 62° WNW 21:43:56 10° SSW
Cosmos 2322 Rocket 4.2 21:36:27 10° NNE 21:39:00 13° NE 21:41:33 10° E
Cosmos 1184 Rocket 3.3 21:36:36 10° SSW 21:39:54 62° W 21:43:15 10° N
Cosmos 1864 Rocket 4.5 21:34:26 10° S 21:40:33 66° E 21:46:38 10° NNE
SL-16 R/B 4.0 21:42:10 10° NNE 21:45:36 16° NE 21:48:26 12° E
Timation 2 Rocket 4.3 21:42:15 10° S 21:47:42 39° ESE 21:53:11 10° NE
USA 186 3.3 21:45:13 10° SSW 21:47:58 33° W 21:50:54 10° NNW
Cosmos 2278 4.2 21:43:49 10° NNW 21:49:22 58° WSW 21:54:54 10° S
ARGOS 3.9 21:49:17 20° ESE 21:52:17 35° ENE 21:57:08 10° N
IUS-9 SRM-1 4.1 21:48:40 10° WSW 21:52:34 47° SSE 22:09:24 10° ESE
Cosmos 2151 Rocket 4.2 21:49:07 10° NNW 21:53:29 56° W 21:57:48 10° S
CENTAUR R/B 3.5 21:55:23 20° ESE 21:55:42 20° ESE 22:00:07 10° ENE
GPS 2-04 Rocket1 2.9 21:52:52 10° WNW 21:57:08 79° N 21:59:43 23° E
Cosmos 2360 4.3 21:53:03 10° NNW 21:58:44 65° ENE 22:02:15 24° SE
Okean 3 4.1 21:55:54 10° SSW 22:00:07 57° W 22:04:21 10° N
ATLAS 3B R/B 3.2 21:57:50 10° SW 22:05:02 67° WNW 22:12:00 10° NNE
Cosmos 1300 Rocket 4.2 22:05:28 10° NNW 22:09:43 52° W 22:13:25 13° SSW
Okean 1 3.6 22:08:31 10° SSW 22:12:28 68° W 22:16:31 10° N
Delta 7925 Rocket 4.0 22:09:42 10° SW 22:13:46 31° S 22:14:12 30° SSE
Spot 2 Rocket 4.0 22:11:22 15° S 22:15:31 58° W 22:20:30 10° NNW
Delta 142 4.4 22:10:28 10° WSW 22:16:24 43° S 22:17:52 35° SE
Cosmos 44 Rocket 4.0 22:12:19 10° NW 22:17:23 54° WSW 22:20:20 24° S
Cosmos 2084 3.7 22:17:48 42° SE 22:18:14 43° ESE 22:22:13 10° NE
Terra 4.0 22:20:01 11° ENE 22:20:22 11° ENE 22:21:39 10° NE
Cosmos 1697 Rocket 3.8 22:17:34 10° NW 22:22:49 40° WSW 22:27:06 15° SSW
Cosmos 468 Rocket 3.9 22:17:58 10° SSW 22:23:15 83° ESE 22:28:32 10° NNE
Tsikada Rocket 4.1 22:17:41 10° N 22:24:06 78° W 22:28:50 19° S
USA 245 4.4 22:25:00 24° NE 22:25:00 24° NE 22:27:26 10° NNE
Cosmos 1937 Rocket 4.4 22:22:30 10° N 22:27:00 30° ENE 22:27:55 28° E
ISS -1.6 22:25:07 10° W 22:27:59 28° NW 22:30:51 10° NNE
MetOp-B 4.1 22:27:45 38° SE 22:29:45 68° ENE 22:35:04 10° N
SL-08 RB Rocket 3.7 22:29:45 49° SE 22:30:43 63° ENE 22:35:13 10° N
Cosmos 2360 Rocket 4.1 22:28:22 10° NNE 22:31:39 16° NE 22:33:03 14° ENE
Cosmos 1980 Rocket 2.6 22:29:11 10° NNW 22:34:44 59° WSW 22:37:31 29° S
Cosmos 1763 Rocket 3.4 22:34:07 36° S 22:36:14 67° ESE 22:41:30 10° NNE
Cosmos 841 Rocket 3.7 22:37:55 45° ESE 22:38:07 45° ESE 22:43:07 10° NNE
Meteor 2-9 Rocket 4.4 22:34:48 10° N 22:39:57 47° E 22:40:45 44° ESE
SPOT 1/Viking Rocket 4.2 22:40:45 36° E 22:41:22 38° ENE 22:46:08 10° N
Cosmos 1666 2.8 22:38:15 10° NNW 22:42:07 71° W 22:42:32 63° SW
Cosmos 1743 2.7 22:39:45 10° N 22:43:35 74° W 22:43:46 72° SW
OAO 1 Rocket 4.3 22:39:49 10° WSW 22:45:10 89° S 22:47:11 39° E
H-2A R/B 1.8 22:44:12 52° SSE 22:45:25 90° WSW 22:50:25 10° NNW
Meteor 2-4 Rocket 3.5 22:45:41 48° SSE 22:47:11 75° E 22:52:40 10° NNE
Abrixas rocket 3.4 22:45:07 10° WSW 22:48:11 41° NW 22:48:33 39° NNW
Cosmos 1340 Rocket 3.5 22:51:32 45° NE 22:51:32 45° NE 22:54:35 10° NNE
DMSP B5D2-2 4.0 22:45:39 10° NNE 22:50:57 74° ESE 22:52:04 55° SSE
Cosmos 1833 4.4 22:53:11 49° ESE 22:53:11 49° ESE 22:58:34 10° NNE
Iridium 2 4.2 22:53:45 51° WSW 22:54:03 53° W 22:57:47 10° N
Helios 1B rocket 3.4 22:50:03 10° NNE 22:52:46 35° NE 22:52:46 35° NE
Cosmos 1455 Rocket 3.4 22:52:22 10° N 22:56:06 51° NE 22:56:06 51° NE
ATLAS CENTAUR R/B 2.6 22:54:21 10° NW 22:58:39 38° WSW 22:59:25 35° SW
Cosmos 1975 Rocket 4.3 22:59:35 24° SW 23:01:31 37° W 23:05:33 10° NNW
Cosmos 1242 Rocket 3.5 22:59:22 10° NNW 23:02:29 45° WNW 23:02:29 45° WNW
Cosmos 1898 Rocket 3.5 22:59:33 10° NNW 23:04:52 79° WSW 23:05:31 67° SSW
Tiangong 2 3.4 23:04:44 10° W 23:06:45 25° NW 23:06:45 25° NW
Cosmos 1814 Rocket 4.3 23:06:16 35° SW 23:08:21 64° WNW 23:13:36 10° N
Cosmos 1072 Rocket 4.5 23:06:21 45° S 23:08:32 85° W 23:14:54 10° N
ERS-1 Rocket 3.1 23:07:59 57° SW 23:08:41 64° WSW 23:13:40 10° NNW
NOSS 3-3 (A) 4.5 23:04:53 10° NNW 23:12:38 85° ENE 23:14:58 52° SE
NOSS 3-3 (C) 4.5 23:04:59 10° NNW 23:12:44 85° ENE 23:15:04 52° SE
BREEZE M DEB (TANK) 3.2 23:06:30 10° NW 23:13:13 48° NNE 23:13:13 48° NNE
Cosmos 292 Rocket 3.8 23:16:52 75° NW 23:16:52 75° NW 23:21:23 10° NNE
Atlas Centaur 2 3.8 23:14:34 10° W 23:14:50 12° WSW 23:14:50 12° WSW
Meteor 2-20 Rocket 4.3 23:14:51 10° N 23:21:00 87° W 23:21:48 70° S
Cosmos 1544 Rocket 4.1 23:19:01 10° NNW 23:22:46 58° NW 23:22:46 58° NW
Cosmos 2322 Rocket 2.1 23:18:02 10° NNW 23:23:40 78° WSW 23:23:50 77° SW
SL-16 R/B 2.3 23:24:32 10° NNW 23:30:09 64° WSW 23:30:19 64° WSW
Cosmos 2150 Rocket 4.1 23:25:26 10° NNW 23:30:25 77° N 23:30:25 77° N
Nadezhda 4 Rocket 4.1 23:25:40 10° N 23:31:47 59° ENE 23:31:47 59° ENE
SPOT 5 3.5 23:33:17 47° WNW 23:33:17 47° WNW 23:36:49 10° NNW
Cosmos 990 Rocket 4.4 23:28:41 10° NNW 23:33:34 57° W 23:33:34 57° W
Cosmos 1536 Rocket 4.5 23:35:36 47° NW 23:35:36 47° NW 23:39:03 10° N
Landsat 7 4.4 23:39:40 55° NW 23:39:40 55° NW 23:43:34 10° NNW
Helios 1A 4.5 23:40:33 32° WNW 23:40:33 32° WNW 23:43:25 10° NNW
CZ-2C R/B 3.6 23:41:02 50° NE 23:41:02 50° NE 23:45:30 10° N
Nimbus 7 Rocket 4.3 23:36:34 10° NNE 23:42:12 82° NE 23:42:12 82° NE
SJ 16-02 3.0 23:39:30 10° N 23:42:00 29° NNE 23:42:00 29° NNE
CENTAUR R/B 3.1 23:42:22 26° WSW 23:45:37 52° NW 23:52:07 10° NNE
Cosmos 2034 Rocket 4.3 23:49:35 54° WSW 23:50:22 58° W 23:56:25 10° N
